Location: Çevreli
(36.2177°N, 29.8378°E)
Time: 08:35:57
(UTC+00:00)

Daily predictions for brighter satellites

Satellite Brightness Start Highest point End
(mag) Time Altitude Azimuth Time Altitude Azimuth Time Altitude Azimuth
Cosmos 2322 Rocket 3.5 15:53:29 10° NW 15:58:50 47° WSW 16:04:09 10° S
Thor Agena Rocket 4.1 15:54:21 10° S 15:59:21 65° WSW 16:04:26 10° NNW
Cosmos 1378 Rocket 3.5 15:55:25 10° S 15:59:43 76° E 16:04:02 10° N
NOSS 3-3 (A) 3.5 15:55:50 10° SSW 16:00:44 83° ESE 16:06:24 10° NNE
Resurs 01 Rocket 3.2 15:58:16 10° ESE 16:00:49 15° ENE 16:03:23 10° NNE
ATLAS 5 CENTAUR R/B 2.3 15:57:56 10° NNW 16:02:17 41° NE 16:07:35 10° SE
Cosmos 1459 Rocket 4.2 15:56:26 10° N 16:02:40 83° W 16:08:59 10° S
GP-B 3.0 15:59:07 10° S 16:03:28 79° E 16:07:50 10° N
Cosmos 2292 Rocket 3.6 16:02:31 10° SSW 16:05:24 50° W 16:08:14 10° N
Cosmos 2219 Rocket 2.4 16:03:04 10° NNW 16:08:40 77° WSW 16:14:13 10° SSE
IRS-P3 4.1 16:03:37 10° SSE 16:08:54 74° ENE 16:14:13 10° N
SKYMED 2 3.6 16:05:00 10° NNE 16:09:22 90° WNW 16:13:41 10° SSW
AQUARIUS 4.5 16:05:08 10° S 16:09:31 72° WSW 16:13:55 10° NNW
CZ-4 R/B 4.3 16:07:18 10° SSE 16:11:14 69° ENE 16:15:11 10° N
PSLV R/B 4.4 16:08:17 10° SE 16:11:43 26° ENE 16:15:09 10° NNE
SJ-12 4.4 16:08:34 10° S 16:12:19 61° WSW 16:16:06 10° NNW
Cosmos 2322 4.1 16:08:08 10° N 16:13:33 42° ENE 16:18:57 10° SE
Cosmos 2016 Rocket 4.0 16:07:18 10° N 16:13:33 74° E 16:19:51 10° SSE
Resurs 1-3 3.7 16:10:20 10° SSE 16:14:28 51° ENE 16:18:39 10° N
COSMO-SKYMED 1 2.5 16:10:31 10° NNE 16:14:34 55° E 16:18:35 10° S
Cosmos 1802 Rocket 4.2 16:10:18 10° N 16:16:44 87° W 16:23:10 10° S
Cosmos 1025 Rocket 3.0 16:14:01 10° S 16:18:14 63° E 16:22:29 10° NNE
Cosmos 2227 Rocket 3.6 16:15:07 10° SE 16:18:33 17° E 16:21:41 11° ENE
SPOT 1/Viking Rocket 3.6 16:14:39 10° S 16:19:46 83° WSW 16:24:55 10° NNW
Cosmos 2233 Rocket 4.0 16:23:17 10° N 16:29:34 73° E 16:35:51 10° SSE
SJ-6B 4.0 16:30:57 17° ENE 16:30:57 17° ENE 16:32:59 10° NNE
CZ-2D R/B 3.2 16:29:40 10° SSE 16:33:29 68° ENE 16:37:24 10° N
Cosmos 1674 Rocket 4.1 16:29:53 10° SSW 16:34:11 62° W 16:38:33 10° N
Cosmos 1725 Rocket 4.4 16:28:10 10° NNW 16:34:22 69° W 16:40:35 10° S
Cosmos 2344 4.4 16:28:49 10° S 16:36:09 30° ESE 16:41:07 15° ENE
OAO 1 Rocket 4.5 16:36:12 10° W 16:41:28 78° S 16:45:08 20° E
Radarsat Rocket 3.9 16:35:56 10° SSE 16:41:42 71° ENE 16:47:42 10° N
CZ-4C R/B 3.3 16:40:45 10° WSW 16:44:18 30° NW 16:48:36 10° NNE
Cosmos 2061 Rocket 4.0 16:38:00 10° N 16:44:24 83° E 16:50:41 10° S
Atlas Centaur 2 3.2 16:37:01 10° WSW 16:44:25 50° S 16:49:03 19° ESE
Cosmos 1315 Rocket 3.3 16:41:20 10° NNW 16:45:04 58° W 16:48:47 10° S
Meteor 2-1 Rocket 4.3 16:46:55 10° N 16:52:46 86° E 16:58:39 10° S
CARTOSAT-1 3.4 16:50:36 10° SSE 16:54:47 84° ENE 16:59:00 10° N
Helios 1A Rocket 2.3 16:55:30 32° NE 16:56:42 53° E 16:59:52 10° S
NOSS 0 Rocket 3.9 16:51:09 10° NNW 16:57:21 65° ENE 17:03:30 10° SSE
Cosmos 2151 Rocket 4.5 16:53:10 10° NNW 16:57:32 52° W 17:01:53 10° S
BlueWalker 3 3.8 16:58:08 10° WNW 17:01:10 26° SW 17:04:12 10° S
SL-24 R/B 4.5 16:57:23 10° SSE 17:01:30 66° ENE 17:06:04 10° N
CRYOSAT 2 4.2 16:57:07 10° N 17:02:01 74° E 17:06:52 10° S
Cosmos 2297 Rocket 2.4 16:57:24 10° SSW 17:03:02 74° WNW 17:08:43 10° NNE
Tiangong -2.3 17:01:21 10° WSW 17:04:31 85° SSE 17:04:47 72° E
Cosmos 1464 Rocket 4.4 16:59:11 10° N 17:05:03 38° ENE 17:10:50 10° SE
Cosmos 1570 Rocket 4.0 17:00:13 10° SSW 17:05:30 90° ESE 17:10:48 10° NNE
Cosmos 1975 Rocket 3.0 17:07:32 10° S 17:11:48 55° E 17:13:25 34° NNE
Cosmos 1125 Rocket 3.4 17:12:42 10° NNW 17:17:55 89° E 17:23:06 10° SSE
Cosmos 1455 Rocket 2.8 17:13:54 10° N 17:18:11 76° E 17:22:29 10° S
Cosmos 2208 Rocket 3.9 17:17:25 10° SSW 17:22:37 89° WNW 17:26:55 16° NNE
Meteor 1-27 4.1 17:18:10 10° N 17:23:58 77° E 17:29:47 10° SSE
Meteor 2-17 Rocket 4.4 17:21:27 10° S 17:27:32 85° W 17:33:37 10° N
Delta 2 Rocket 3.8 17:25:45 10° W 17:27:56 41° WSW 17:27:56 41° WSW
COSMOS 2428 3.8 17:28:01 10° NW 17:33:25 45° WSW 17:38:48 10° S
Cosmos 2263 Rocket 2.9 17:31:12 10° S 17:34:50 36° SSE 17:34:50 36° SSE
Resurs 01 Rocket 2.8 17:32:39 10° S 17:36:48 42° W 17:40:58 10° NNW
Cosmos 1980 3.5 17:31:42 10° NNW 17:37:22 82° ENE 17:38:56 50° SSE
Cosmos 44 Rocket 3.9 17:36:07 10° SW 17:40:51 55° WNW 17:42:41 35° N
Cosmos 2237 Rocket 2.0 17:37:17 10° NNW 17:43:00 85° ENE 17:43:58 63° SSE
SEDSat Delta rocket 4.1 17:39:28 10° WSW 17:42:29 32° SSW 17:42:29 32° SSW
ATLAS 5 CENTAUR R/B 4.2 17:40:29 10° WNW 17:44:31 25° WSW 17:49:10 10° SSW
Cosmos 2227 Rocket 2.7 17:56:28 10° SW 18:01:59 57° WNW 18:03:35 42° NNW
SL-16 R/B 4.3 18:01:27 10° N 18:02:27 15° N 18:02:27 15° N
BREEZE-M DEB (TANK) 3.8 18:02:48 10° WSW 18:06:39 63° NNW 18:08:21 50° NNE
NOSS 3-4 (A) 3.9 18:08:49 10° NNW 18:15:10 69° NNE 18:15:10 69° NNE
NOSS 3-4 (C) 3.9 18:09:06 10° NNW 18:15:23 68° N 18:15:23 68° N
Gbstr 26 Del rocket 4.2 18:11:24 10° SW 18:17:51 81° W 18:17:51 81° W
Atlas Centaur 2 3.5 18:26:03 10° W 18:30:59 38° SW 18:30:59 38° SW
Cosmos 2344 4.3 18:42:30 10° WSW 18:50:13 45° NW 18:51:12 43° NNW
